Weather History for Renton, WA

Change the Weather History Date:

Friday, July 5, 2013

  Actual Average Record
Temperature  
Mean Temperature 64 °F -  
Max Temperature 73 °F 73 °F 80 °F (2004)
Min Temperature 57 °F 55 °F 48 °F (2000)
Growing Degree Days 14 (Base 50)    
Moisture  
Dew Point 35 °F    
Average Humidity 34    
Maximum Humidity 38    
Minimum Humidity 30    
Precipitation  
Precipitation 0.00 in - - ()
Sea Level Pressure  
Sea Level Pressure 30.03 in    
Wind  
Wind Speed 3 mph (South)    
Max Wind Speed 7 mph    
Max Gust Speed -    
Visibility 10 miles    
Events      
Averages and records for this station are not official NWS values.
T = Trace of Precipitation, MM = Missing Value Source: NWS Daily Summary

Daily Weather History Graph

Daily Weather History Graph

Search for Another Location

Airport:

Trip Planner

Search our weather history database for the weather conditions in past years. The results will help you decide how hot, cold, wet, or windy it might be!

Date:

Astronomy

Jul. 05, 2013 Rise Set
Actual Time 5:18 AM PDT 9:08 PM PDT
Civil Twilight 4:38 AM PDT 9:47 PM PDT
Nautical Twilight 3:44 AM PDT 10:42 PM PDT
Astronomical Twilight 2:23 AM PDT 12:01 AM PDT
Moon 3:26 AM PDT (7/5) 7:03 PM PDT (7/5)
Length of Visible Light 17h 09m
Length of Day
15h 49m
Waning Crescent, 6% of the Moon is Illuminated
Jul 5
Waning Crescent
Jul 8
New
Jul 15
First Quarter
Jul 22
Full
Jul 29
Last Quarter

Hourly Weather History & Observations

Time (PDT) Temp. Dew Point Humidity Pressure Visibility Wind Dir Wind Speed Gust Speed Precip Events Conditions
12:53 AM 63.0 °F 34.0 °F 34% 30.05 in 10.0 mi SSW 3.5 mph - N/A   Partly Cloudy
1:53 AM 61.0 °F 34.0 °F 36% 30.05 in 10.0 mi SSE 5.8 mph - N/A   Mostly Cloudy
2:53 AM 60.1 °F 32.0 °F 35% 30.05 in 10.0 mi South 3.5 mph - N/A   Mostly Cloudy
3:30 AM 60.8 °F 32.0 °F 34% 30.03 in 10.0 mi South 3.5 mph - N/A   Overcast
3:53 AM 60.1 °F 32.0 °F 35% 30.05 in 10.0 mi South 3.5 mph - N/A   Overcast
4:53 AM 60.1 °F 33.1 °F 36% 30.05 in 10.0 mi South 4.6 mph - N/A   Overcast
5:53 AM 59.0 °F 32.0 °F 36% 30.05 in 10.0 mi South 4.6 mph - N/A   Overcast
6:53 AM 57.9 °F 28.9 °F 33% 30.05 in 10.0 mi SSW 3.5 mph - N/A   Overcast
7:05 AM 59.0 °F 30.2 °F 34% 30.04 in 10.0 mi Calm Calm - N/A   Overcast
7:53 AM 59.0 °F 32.0 °F 36% 30.06 in 10.0 mi Variable 3.5 mph - N/A   Overcast
8:53 AM 61.0 °F 34.0 °F 36% 30.06 in 10.0 mi Calm Calm - N/A   Overcast
9:48 AM 62.6 °F 35.6 °F 37% 30.04 in 10.0 mi SSW 6.9 mph - N/A   Mostly Cloudy
9:53 AM 63.0 °F 36.0 °F 37% 30.06 in 10.0 mi Calm Calm - N/A   Mostly Cloudy
10:53 AM 63.0 °F 37.0 °F 38% 30.05 in 10.0 mi Variable 4.6 mph - N/A   Overcast
11:53 AM 64.9 °F 37.0 °F 36% 30.05 in 10.0 mi Calm Calm - N/A   Overcast
12:53 PM 68.0 °F 37.0 °F 32% 30.04 in 10.0 mi ESE 3.5 mph - N/A   Overcast
1:53 PM 68.0 °F 37.9 °F 33% 30.03 in 10.0 mi Calm Calm - N/A   Mostly Cloudy
2:53 PM 70.0 °F 37.9 °F 31% 30.02 in 10.0 mi Calm Calm - N/A   Overcast
3:53 PM 71.1 °F 37.9 °F 30% 30.01 in 10.0 mi Calm Calm - N/A   Mostly Cloudy
4:53 PM 71.1 °F 39.0 °F 31% 30.00 in 10.0 mi Variable 3.5 mph - N/A   Mostly Cloudy
5:53 PM 72.0 °F 39.9 °F 31% 29.98 in 10.0 mi SSW 4.6 mph - N/A   Partly Cloudy
6:53 PM 72.0 °F 39.9 °F 31% 29.97 in 10.0 mi SSW 3.5 mph - N/A   Clear
7:53 PM 72.0 °F 41.0 °F 33% 29.97 in 10.0 mi Calm Calm - N/A   Partly Cloudy
8:53 PM 69.1 °F 39.0 °F 33% 29.97 in 10.0 mi Calm Calm - N/A   Clear
9:53 PM 66.9 °F 36.0 °F 32% 29.98 in 10.0 mi Calm Calm - N/A   Clear
10:53 PM 64.9 °F 37.0 °F 36% 29.98 in 10.0 mi Calm Calm - N/A   Clear
11:53 PM 62.1 °F 35.1 °F 37% 29.99 in 10.0 mi Calm Calm - N/A   Clear